Weather History for KLGU - August, 2014

Change the Weather History Date:

Tuesday, August 19, 2014

  Actual Average Record
Temperature  
Mean Temperature 70 °F -  
Max Temperature 77 °F 85 °F 99 °F (1961)
Min Temperature 62 °F 52 °F 38 °F (1978)
Cooling Degree Days 6    
Growing Degree Days 20 (Base 50)    
Moisture  
Dew Point 49 °F    
Average Humidity 46    
Maximum Humidity 65    
Minimum Humidity 31    
Precipitation  
Precipitation 0.00 in - - ()
Sea Level Pressure  
Sea Level Pressure 29.76 in    
Wind  
Wind Speed 6 mph (SSW)    
Max Wind Speed 16 mph    
Max Gust Speed -    
Visibility 10 miles    
Events      
Averages and records for this station are not official NWS values.
T = Trace of Precipitation, MM = Missing Value Source: NWS Daily Summary

Daily Weather History Graph

Daily Weather History Graph

Search for Another Location

Airport or City:

Trip Planner

Search our weather history database for the weather conditions in past years. The results will help you decide how hot, cold, wet, or windy it might be!

Date:

Astronomy

Aug. 19, 2014 Rise Set
Actual Time 6:39 AM MDT 8:21 PM MDT
Civil Twilight 6:10 AM MDT 8:50 PM MDT
Nautical Twilight 5:34 AM MDT 9:26 PM MDT
Astronomical Twilight 4:55 AM MDT 10:04 PM MDT
Moon 1:33 AM MDT (8/19) 4:22 PM MDT (8/19)
Length of Visible Light 14h 40m
Length of Day
13h 41m
Waning Crescent, 28% of the Moon is Illuminated
Aug 19
Waning Crescent
Aug 25
New
Sep 2
First Quarter
Sep 8
Full
Sep 15
Last Quarter

Hourly Weather History & Observations

Time (MDT) Temp. Dew Point Humidity Pressure Visibility Wind Dir Wind Speed Gust Speed Precip Events Conditions
12:51 AM 66.9 °F 46.9 °F 49% 29.75 in 10.0 mi SSW 4.6 mph - N/A   Clear
1:51 AM 66.0 °F 43.0 °F 43% 29.75 in 10.0 mi Variable 3.5 mph - N/A   Clear
2:51 AM 77.0 °F 44.1 °F 31% 29.73 in 10.0 mi South 8.1 mph - N/A   Clear
3:51 AM 72.0 °F 46.0 °F 40% 29.73 in 10.0 mi Calm Calm - N/A   Clear
4:51 AM 73.9 °F 48.9 °F 41% 29.73 in 10.0 mi SSE 6.9 mph - N/A   Clear
5:51 AM 64.9 °F 51.1 °F 61% 29.75 in 10.0 mi NE 4.6 mph - N/A   Clear
6:51 AM 64.9 °F 50.0 °F 58% 29.76 in 10.0 mi Variable 3.5 mph - N/A   Clear
7:51 AM 68.0 °F 50.0 °F 52% 29.77 in 10.0 mi Calm Calm - N/A   Clear
8:51 AM 73.0 °F 48.9 °F 42% 29.79 in 10.0 mi ESE 4.6 mph - N/A   Clear
9:51 AM 75.0 °F 48.0 °F 38% 29.80 in 10.0 mi South 11.5 mph - N/A   Mostly Cloudy
11:51 AM 75.0 °F 53.1 °F 46% 29.82 in 10.0 mi SSW 8.1 mph - N/A   Clear
12:51 PM 73.9 °F 50.0 °F 43% 29.82 in 10.0 mi SSW 12.7 mph - N/A   Partly Cloudy
1:51 PM 73.9 °F 51.1 °F 45% 29.82 in 10.0 mi SSW 16.1 mph - N/A   Clear
3:51 PM 75.0 °F 50.0 °F 41% 29.76 in 10.0 mi SW 11.5 mph - N/A   Mostly Cloudy
4:51 PM 75.9 °F 50.0 °F 40% 29.71 in 10.0 mi SSW 9.2 mph - N/A   Clear
5:51 PM 75.9 °F 48.9 °F 38% 29.71 in 10.0 mi WSW 5.8 mph - N/A   Clear
6:51 PM 77.0 °F 48.9 °F 37% 29.71 in 10.0 mi NW 5.8 mph - N/A   Clear
7:51 PM 71.1 °F 51.1 °F 49% 29.73 in 10.0 mi NNW 6.9 mph - N/A   Partly Cloudy
10:51 PM 64.0 °F 51.1 °F 63% 29.76 in 10.0 mi NNE 5.8 mph - N/A   Clear
11:51 PM 62.1 °F 50.0 °F 65% 29.77 in 10.0 mi West 5.8 mph - N/A   Mostly Cloudy